STARLINK-5149 (53981 NORAD) Tracking and Keplerian Element Data

This shows tracking and keplerian element data for the satellite.

Feedback or suggestion? Click here.




ElementValue
Catalog53981
NameSTARLINK-5149
Epoch Orbit767
Epoch Day325.25001157
Epoch Year2022
RAAN222.5005
Inclination53.2182
Eccentricity0.0001963
Argument of Perigee25.596
Mean Anonmoly284.4439
Mean Motion15.73189233
Decay Rate0.00020795
L11 53981U 22125T 22325.25001157 .00020795 00000+0 15228-3 0 9996
L22 53981 53.2182 222.5005 0001963 25.5960 284.4439 15.73189233 7677



Live tracking and technical data element details for STARLINK-5149 (NORAD 53981). STARLINK-5149 can be tracked NOW for your location showing map with azimuth and elevation plus other details from your city location.







IsCatalogInMostPopularTable: catalog: 53981, numindb: 4
Update: records affected: 1



GetName: 53981 STARLINK-5149

Hit Count: updated at: Mon, 28 Nov 2022 21:53:34 GMT